Simultaneous Nadir Overpasses (SNOs) Predictions

Prediction of SNOs between GOES-16 and TERRA Satellite Orbit:

Table of predicted SNOs for the next 14.0 days since TLE Epoch: 3/30/2017
Index Date Time (GOES-16) GOES-16 Lat,Lon TERRA Lat,Lon Distance(km) Time Diff (sec)
1 03/31/2017 04:43:42 0.00, -89.48 -0.75, -92.91 389.89 80
2 04/02/2017 04:31:31 0.00, -89.49 -0.09, -89.95 53.09 80
3 04/04/2017 04:16:39 0.00, -89.49 0.51, -86.99 283.94 80
4 04/04/2017 16:37:55 -0.00, -89.52 0.56, -92.15 299.77 80
5 04/06/2017 16:28:23 -0.00, -89.53 -0.05, -89.19 38.09 80
6 04/08/2017 16:16:12 -0.00, -89.55 -0.73, -86.24 376.51 80
7 04/09/2017 04:37:36 0.00, -89.53 -0.38, -91.43 215.17 80
8 04/11/2017 04:22:44 0.00, -89.56 0.24, -88.47 123.95 80
9 04/11/2017 16:43:59 -0.00, -89.58 0.88, -93.62 459.75 80
10 04/13/2017 04:10:32 0.00, -89.58 0.87, -85.51 463.47 80
11 04/13/2017 16:31:48 -0.00, -89.61 0.20, -90.67 120.12 80




NCC Satellite Simultaneous Nadir Overpasses (SNOs) Prediction Service
